sat.trackr.live / text

‹ back to catalog

STARLINK-5554

NORAD 56338 · 2023-058X

PAYLOAD ACTIVE UNKNOWN

§ Identity

Operator
Country
US
Launch date
2023-04-27
Launch site
AFWTR
Launch vehicle
Mass (kg)
RCS (m²)

Purposes: comms

External: N2YO · Heavens-Above · Gunter

§ Orbital elements

Epoch: 2026-09-20T22:00:03.000096Z

Period
94.91 min
Inclination
97.2847°
Eccentricity
0.0001648
Mean motion
15.17152657 rev/d
Perigee alt
513.3 km
Apogee alt
515.6 km
Semi-major
6,892.6 km
B*
3.3895e-2
RAAN
257.8165°
Arg perigee
84.4741°
Mean anomaly
92.3926°
Rev number
578

§ Raw data

STARLINK-55541 56338U 23058X   26263.91670139  .00722412  00000+0  33895-1 0  99942 56338  97.2847 257.8165 0001648  84.4741  92.3926 15.17152657  5786

JSON: /api/v1/satellites/56338 · /tle

For live sub-satellite position, see the globe view (requires WebGL).

§ Visibility from observer

Set your observer location to see the next 7 days of passes ≥ 10°. The values pass through the URL so the page stays shareable.

No JS? Fill the form by hand. The geolocation button needs JavaScript.